sat.trackr.live / text

‹ back to catalog

STARLINK-3660

NORAD 51977 · 2022-025X

PAYLOAD ACTIVE UNKNOWN

§ Identity

Operator
Country
US
Launch date
2022-03-09
Launch site
AFETR
Launch vehicle
Mass (kg)
RCS (m²)

Purposes: comms

External: N2YO · Heavens-Above · Gunter

§ Orbital elements

Epoch: 2026-05-25T03:00:35.148384Z

Period
95.44 min
Inclination
53.2134°
Eccentricity
0.0001673
Mean motion
15.08836452 rev/d
Perigee alt
538.6 km
Apogee alt
540.9 km
Semi-major
6,917.9 km
B*
5.6865e-5
RAAN
35.9944°
Arg perigee
82.1069°
Mean anomaly
278.0113°
Rev number
23,287

§ Raw data

STARLINK-36601 51977U 22025X   26145.12540681  .00000617  00000+0  56865-4 0  99922 51977  53.2134  35.9944 0001673  82.1069 278.0113 15.08836452232872

JSON: /api/v1/satellites/51977 · /tle

For live sub-satellite position, see the globe view (requires WebGL).

§ Visibility from observer

Set your observer location to see the next 7 days of passes ≥ 10°. The values pass through the URL so the page stays shareable.

No JS? Fill the form by hand. The geolocation button needs JavaScript.